Regional Weather Roundup
Issued by NWS Newport/Morehead, NC

Current Version | Previous Version | Text Only | Print | Product List | Glossary Off
Versions: 1 2 3 4 5 6 7 8 9 10 11 12 13 14 15 16 17 18 19 20 21 22 23 24 25 26 27 28 29 30 31 32 33 34 35 36 37 38 39 40 41 42 43 44 45 46 47 48 49 50
000 ASUS42 KMHX 172010 RWRMHX WEATHER ROUNDUP FOR EASTERN NORTH CAROLINA NATIONAL WEATHER SERVICE NEWPORT/MOREHEAD CITY NC 300 PM EST WED DEC 17 2014 NOTE: "FAIR" INDICATES FEW OR NO CLOUDS BELOW 12,000 FEET WITH NO SIGNIFICANT WEATHER AND/OR OBSTRUCTIONS TO VISIBILITY NCZ015>017-031-032-045>047-102-103-172100- NORTH COAST CITY SKY/WX TMP DP RH WIND PRES REMARKS EDENTON SUNNY 59 41 51 W7 29.99S ELIZABETH CITY SUNNY 62 40 44 W9 29.98S KITTY HAWK CLEAR 55 43 63 W6 29.97F MANTEO SUNNY 55 41 58 NW5 29.99S $$ NCZ045>047-081-094-103-104-172100- CENTRAL COAST CITY SKY/WX TMP DP RH WIND PRES REMARKS FRISCO SUNNY 56 44 64 W5 30.00F SWANQUARTER N/A 57 N/A N/A SW6G12 29.97S $$ NCZ095-097-098-100-101-172100- SOUTHERN COAST CITY SKY/WX TMP DP RH WIND PRES REMARKS BEAUFORT SUNNY 59 44 57 SW10 30.03S CEDAR ISLAND N/A 57 N/A N/A NW2 30.06S JACKSONVILLE SUNNY 61 39 44 NW9 30.02F PINEY ISLAND NOT AVBL WILMINGTON SUNNY 61 39 44 NW9 30.04S $$ NCZ011>013-027>030-043-044-078>080-089-090>093-098-172100- COASTAL PLAIN CITY SKY/WX TMP DP RH WIND PRES REMARKS AHOSKIE SUNNY 56 38 51 NW5 30.00S CLINTON SUNNY 61 42 50 W7 30.04S ELIZABETHTOWN SUNNY 61 39 44 W7 30.04F GOLDSBORO SUNNY 60 44 53 W12 30.00F GREENVILLE SUNNY 61 41 48 W8 30.03S HAVELOCK NOT AVBL KENANSVILLE SUNNY 60 38 44 W5 30.03F KINSTON SUNNY 61 39 44 W7 30.02F NEW BERN SUNNY 62 40 44 W8 30.03S RICHLANDS SUNNY 61 37 41 W6 30.03F ROCKY MOUNT SUNNY 59 38 45 W8 30.02S WASHINGTON SUNNY 59 39 46 NW7 30.01S WHITEVILLE SUNNY 61 39 44 W3 30.05S $$ AMZ130-135-150-152-154-156-158-170-250-252-270-ANZ085-086-088-633-658-670-172100- MARINE OBSERVATIONS STATION/POSITION TIME TEMP WIND PRES WAVE SWELL AIR SEA DIR/SP/G HT/PER HT/PER (UTC) (F) (DEG/KT/KT) (MB) (FT/S) (FT/S) CHESAPEAKE LIGHT 1900 49 200/ 5/ 5 1015.7 64 E VA BEACH 2000 52 55 260/ 10/ 10 1014.6 3/ 8 3/ 8 DUCK 2000 54 49 220/ 8/ 9 1014.2 2 E DUCK 2000 49 N/A 1/ 9 10 NE DUCK 2000 52 N/A 2/ 9 OREGON INLET 2000 56 51 310/ 4/ 5 1015.4 13E OREGON INLT 2000 53 N/A 2/ 8 HATTERAS CG 2000 54 53 270/ 4/ 6 1016.3 DIAMOND BUOY 2000 55 1016.5 3/ 7 17 S OCRACOKE NOT AVBL CAPE LOOKOUT 1900 57 240/ 7/ 9 1016.9 BEAUFORT LAB 2000 57 53 210/ 7/ 10 1015.5 30 SE NEW RIVER 1900 56 61 290/ 6/ 8 1017.6 5 SE WRIGHTSVLE 1900 57 55 190/ 4/ 6 1017.4 225 S CAPE HAT 1927 68 73 320/ 8/ 12 1017.3 7/ 7 7/ 7 41 SE CHARLESTON 2000 60 73 320/ 2/ 4 1018.0 2/ 4 2/11 $$

USA.gov is the U.S. government's official web portal to all federal, state and local government web resources and services.